Location: Recife
(8.0585°S, 34.8848°W)
Time: 22:00:06
(UTC-03:00)

A-11 Canister half - Pass Details

Date: 22 April 2026
Orbit: 1523 x 1684 km, 47.3° (Epoch: 19 May)

Event Time Altitude Azimuth Distance (km) Brightness Sun altitude
Rises 20:37:39 0° 249° (WSW) 4,741 12.1 -50.4°
Reaches altitude 10° 20:41:42 10° 264° (W) 3,780 11.5 -51.3°
Maximum altitude 20:48:26 21° 309° (NW) 3,017 10.7 -53.0°
Enters shadow 20:51:01 19° 330° (NNW) 3,159 10.8 -53.6°
